K4BS Weather Reports


Display with metric or nautical units.
time (UTC)temp
F
wind
direction
speed
MPH
gust
MPH
rain 1hr
in
rain 24hr
in
rain mn
in
humidity
%
barometer
mb
20191116214025 58 140 0.0 0.0 0.00 0.00 0.00 55 1021.9
20191116213024 58 140 0.0 0.0 0.00 0.00 0.00 55 1021.9
20191116212024 59 140 0.0 0.0 0.00 0.00 0.00 58 1021.8
20191116211024 60 140 0.0 0.0 0.00 0.00 0.00 60 1021.6
20191116210023 60 140 0.0 1.0 0.00 0.00 0.00 56 1021.5
20191116205024 60 140 0.0 1.0 0.00 0.00 0.00 57 1021.5
20191116204025 60 140 0.0 0.0 0.00 0.00 0.00 52 1021.5
20191116203025 61 140 0.0 1.0 0.00 0.00 0.00 51 1021.5
20191116202025 61 87 0.0 1.0 0.00 0.00 0.00 52 1021.4
20191116201025 62 87 0.0 1.0 0.00 0.00 0.00 52 1021.3
20191116200018 62 207 0.0 1.0 0.00 0.00 0.00 51 1021.4
20191116195024 62 129 0.0 1.0 0.00 0.00 0.00 52 1021.3
20191116193025 63 194 0.0 1.0 0.00 0.00 0.00 51 1021.3
20191116192024 63 187 0.0 1.0 0.00 0.00 0.00 52 1021.3
20191116191025 64 180 0.0 1.0 0.00 0.00 0.00 52 1021.3
20191116190019 64 155 0.0 3.0 0.00 0.00 0.00 51 1021.3
20191116185024 63 178 0.0 1.0 0.00 0.00 0.00 53 1021.4
20191116184024 63 178 0.0 1.0 0.00 0.00 0.00 56 1021.5
20191116183025 62 89 0.0 0.0 0.00 0.00 0.00 52 1021.5
20191116182025 62 94 0.0 0.0 0.00 0.00 0.00 52 1021.7
20191116181024 62 94 0.0 1.0 0.00 0.00 0.00 53 1021.9
20191116180019 61 104 0.0 1.0 0.00 0.00 0.00 53 1022.1
20191116175024 61 104 0.0 1.0 0.00 0.00 0.00 58 1022.1
20191116172024 57 112 0.0 0.0 0.00 0.00 0.00 71 1022.5
20191116171024 56 112 0.0 1.0 0.00 0.00 0.00 67 1022.8
20191116170019 56 112 0.0 1.0 0.00 0.00 0.00 64 1023.1
20191116165025 55 114 0.0 0.0 0.00 0.00 0.00 68 1023.5
20191116164024 54 114 0.0 0.0 0.00 0.00 0.00 68 1023.7
20191116163025 54 112 0.0 0.0 0.00 0.00 0.00 80 1023.8
20191116162025 52 109 0.0 0.0 0.00 0.00 0.00 83 1024.1
20191116161025 51 109 0.0 1.0 0.00 0.00 0.00 90 1024.3
20191116160019 50 145 0.0 0.0 0.00 0.00 0.00 99 1024.6
20191116155025 50 145 0.0 0.0 0.00 0.00 0.00 99 1024.6
20191116153024 48 145 0.0 0.0 0.00 0.00 0.00 99 1024.7
20191116152024 47 145 0.0 0.0 0.00 0.00 0.00 99 1024.9
20191116151024 46 145 0.0 0.0 0.00 0.00 0.00 99 1024.9
20191116150018 44 145 0.0 0.0 0.00 0.00 0.00 99 1024.9
20191116143024 40 145 0.0 0.0 0.00 0.00 0.00 99 1025.3
20191116141024 38 145 0.0 0.0 0.00 0.00 0.00 99 1025.6
20191116140018 36 145 0.0 0.0 0.00 0.00 0.00 99 1025.6
20191116135024 35 145 0.0 0.0 0.00 0.00 0.00 99 1025.6
20191116134024 35 145 0.0 0.0 0.00 0.00 0.00 99 1025.6
20191116132025 34 145 0.0 0.0 0.00 0.00 0.00 98 1025.7
20191116131024 34 145 0.0 0.0 0.00 0.00 0.00 98 1025.6
20191116125024 33 145 0.0 0.0 0.00 0.00 0.00 98 1025.8
20191116124024 33 145 0.0 0.0 0.00 0.00 0.00 98 1025.6
20191116123024 33 145 0.0 0.0 0.00 0.00 0.00 98 1025.5
20191116121024 33 145 0.0 0.0 0.00 0.00 0.00 98 1025.4
20191116120018 33 145 0.0 0.0 0.00 0.00 0.00 98 1025.3
20191116114024 33 145 0.0 0.0 0.00 0.00 0.00 98 1024.9
20191116113024 33 145 0.0 0.0 0.00 0.00 0.00 98 1024.9
20191116111025 33 145 0.0 0.0 0.00 0.00 0.00 98 1024.6
20191116110018 34 145 0.0 0.0 0.00 0.00 0.00 98 1024.6
20191116105026 34 145 0.0 0.0 0.00 0.00 0.00 98 1024.5
20191116103024 34 145 0.0 0.0 0.00 0.00 0.00 98 1024.1
20191116101025 34 145 0.0 0.0 0.00 0.00 0.00 98 1024.0
20191116100019 34 145 0.0 0.0 0.00 0.00 0.00 98 1023.9
20191116095024 34 145 0.0 0.0 0.00 0.00 0.00 98 1023.7
20191116092024 34 145 0.0 0.0 0.00 0.00 0.00 98 1023.4
20191116090018 34 145 0.0 0.0 0.00 0.00 0.00 98 1023.3
20191116085024 34 145 0.0 1.0 0.00 0.00 0.00 97 1023.3
20191116084024 34 145 0.0 0.0 0.00 0.00 0.00 97 1023.0
20191116083024 34 145 0.0 0.0 0.00 0.00 0.00 97 1023.0
20191116082024 35 145 0.0 0.0 0.00 0.00 0.00 97 1023.1
20191116081025 35 145 0.0 0.0 0.00 0.00 0.00 97 1023.1
20191116080019 35 145 0.0 0.0 0.00 0.00 0.00 97 1023.1
20191116075024 35 145 0.0 0.0 0.00 0.00 0.00 97 1023.0
20191116074024 35 145 0.0 0.0 0.00 0.00 0.00 97 1022.9
20191116073024 35 145 0.0 0.0 0.00 0.00 0.00 97 1022.9
20191116072024 35 145 0.0 0.0 0.00 0.00 0.00 97 1022.8
20191116064024 37 145 0.0 0.0 0.00 0.00 0.00 97 1022.9
20191116063024 37 145 0.0 0.0 0.00 0.00 0.00 97 1023.0
20191116062025 37 145 0.0 0.0 0.00 0.00 0.00 97 1023.0
20191116061024 37 145 0.0 0.0 0.00 0.00 0.00 97 1022.9
20191116054025 38 145 0.0 0.0 0.00 0.00 0.00 97 1023.1
20191116053024 38 145 0.0 0.0 0.00 0.00 0.00 97 1023.3
20191116051024 39 145 0.0 0.0 0.00 0.00 0.00 97 1023.6
20191116045024 39 145 0.0 0.0 0.00 0.00 0.00 97 1024.0
20191116044025 39 145 0.0 0.0 0.00 0.00 0.00 97 1024.2
20191116043024 39 145 0.0 0.0 0.00 0.00 0.00 97 1024.1
20191116042024 40 145 0.0 0.0 0.00 0.00 0.00 97 1024.3
20191116035024 40 145 0.0 0.0 0.00 0.00 0.00 97 1024.3
20191116034024 40 145 0.0 0.0 0.00 0.00 0.00 97 1024.4
20191116031024 40 145 0.0 0.0 0.00 0.00 0.00 97 1024.5
20191116030018 41 145 0.0 0.0 0.00 0.00 0.00 97 1024.4
20191116025024 41 145 0.0 0.0 0.00 0.00 0.00 97 1024.3
20191116024024 41 145 0.0 0.0 0.00 0.00 0.00 97 1024.5
20191116023024 41 145 0.0 0.0 0.00 0.00 0.00 97 1024.4
20191116022024 41 145 0.0 0.0 0.00 0.00 0.00 97 1024.4
20191116021024 41 145 0.0 0.0 0.00 0.00 0.00 96 1024.3
20191116013024 42 145 0.0 0.0 0.00 0.00 0.00 97 1024.5
20191116012026 42 145 0.0 0.0 0.00 0.00 0.00 96 1024.5
20191116011024 42 145 0.0 0.0 0.00 0.00 0.00 96 1024.5
20191116010018 42 145 0.0 0.0 0.00 0.00 0.00 96 1024.3
20191116005024 43 145 0.0 0.0 0.00 0.00 0.00 95 1024.2
20191116002024 45 145 0.0 0.0 0.00 0.00 0.00 96 1024.2
20191116001023 45 145 0.0 2.0 0.00 0.00 0.00 97 1024.1
20191116000018 45 164 0.0 0.0 0.00 0.00 0.00 97 1024.1
20191115235024 45 164 0.0 0.0 0.00 0.00 0.00 97 1024.1
20191115232024 46 164 0.0 0.0 0.00 0.00 0.00 96 1024.0
20191115231024 46 164 0.0 0.0 0.00 0.00 0.00 96 1023.9
20191115230018 46 164 0.0 0.0 0.00 0.00 0.00 96 1023.8
20191115225023 47 164 0.0 0.0 0.00 0.00 0.00 96 1023.8
20191115224024 47 164 0.0 0.0 0.00 0.00 0.00 95 1023.8
20191115223023 48 164 0.0 0.0 0.00 0.00 0.00 95 1023.9
20191115222023 48 164 0.0 0.0 0.00 0.00 0.00 95 1024.0
20191115215026 49 164 0.0 0.0 0.00 0.00 0.00 95 1023.9